Weather History for Gwinn, MI

Change the Weather History Date:

Saturday, September 14, 2013

  Actual Average (KESC) Record (KESC)
Temperature  
Mean Temperature 52 °F -  
Max Temperature 68 °F 65 °F 75 °F (2004)
Min Temperature 37 °F 49 °F 33 °F (2001)
Degree Days  
Heating Degree Days 12    
Growing Degree Days 2 (Base 50)    
Moisture  
Dew Point 42 °F    
Average Humidity 78    
Maximum Humidity 100    
Minimum Humidity 46    
Precipitation  
Precipitation 0.00 in - - ()
Sea Level Pressure  
Sea Level Pressure 30.04 in    
Wind  
Wind Speed 4 mph (SW)    
Max Wind Speed 21 mph    
Max Gust Speed 26 mph    
Visibility 10 miles    
Events      
Averages and records for this station are not official NWS values.
T = Trace of Precipitation, MM = Missing Value Source: NWS Daily Summary

Daily Weather History Graph

Daily Weather History Graph

Search for Another Location

Airport:

Trip Planner

Search our weather history database for the weather conditions in past years. The results will help you decide how hot, cold, wet, or windy it might be!

Date:

Astronomy

Sep. 14, 2013 Rise Set
Actual Time 7:26 AM EDT 8:02 PM EDT
Civil Twilight 6:56 AM EDT 8:32 PM EDT
Nautical Twilight 6:20 AM EDT 9:08 PM EDT
Astronomical Twilight 5:42 AM EDT 9:45 PM EDT
Moon 4:56 PM EDT (9/14) 1:43 AM EDT (9/14)
Length of Visible Light 13h 36m
Length of Day
12h 35m
Waxing Gibbous, 72% of the Moon is Illuminated
Sep 14
Waxing Gibbous
Sep 19
Full
Sep 26
Last Quarter
Oct 4
New
Oct 11
First Quarter

Hourly Weather History & Observations

Time (EDT) Temp. Windchill Dew Point Humidity Pressure Visibility Wind Dir Wind Speed Gust Speed Precip Events Conditions
12:17 AM 39.9 °F - 37.2 °F 90% 30.12 in 10.0 mi Calm Calm - N/A   Clear
12:36 AM 41.0 °F - 38.5 °F 91% 30.12 in 10.0 mi Calm Calm - N/A   Clear
12:57 AM 40.3 °F - 37.6 °F 90% 30.12 in 10.0 mi Calm Calm - N/A   Clear
1:17 AM 39.7 °F - 36.7 °F 89% 30.12 in 10.0 mi Calm Calm - N/A   Clear
1:36 AM 40.1 °F - 37.4 °F 90% 30.12 in 10.0 mi Calm Calm - N/A   Clear
1:57 AM 39.2 °F - 36.1 °F 89% 30.12 in 10.0 mi Calm Calm - N/A   Clear
2:16 AM 38.8 °F - 36.1 °F 90% 30.12 in 10.0 mi Calm Calm - N/A   Clear
2:37 AM 39.0 °F - 36.5 °F 91% 30.12 in 10.0 mi Calm Calm - N/A   Clear
2:57 AM 39.2 °F - 36.3 °F 89% 30.12 in 10.0 mi Calm Calm - N/A   Clear
3:16 AM 39.2 °F - 36.5 °F 90% 30.11 in 10.0 mi Calm Calm - N/A   Clear
3:37 AM 39.0 °F - 36.7 °F 91% 30.11 in 10.0 mi Calm Calm - N/A   Clear
3:57 AM 39.2 °F 35.9 °F 36.9 °F 91% 30.11 in 10.0 mi SW 4.6 mph - N/A   Clear
4:16 AM 39.2 °F 35.9 °F 37.0 °F 92% 30.10 in 10.0 mi SSW 4.6 mph - N/A   Clear
4:37 AM 39.2 °F 37.0 °F 36.9 °F 91% 30.10 in 10.0 mi SW 3.5 mph - N/A   Clear
4:57 AM 38.8 °F - 36.9 °F 93% 30.10 in 10.0 mi Calm Calm - N/A   Clear
5:16 AM 39.2 °F 35.9 °F 37.0 °F 92% 30.09 in 10.0 mi SSW 4.6 mph - N/A   Clear
5:37 AM 39.2 °F 37.0 °F 37.4 °F 93% 30.09 in 10.0 mi SSW 3.5 mph - N/A   Clear
5:57 AM 39.2 °F 37.0 °F 37.4 °F 93% 30.09 in 10.0 mi SSW 3.5 mph - N/A   Clear
6:50 AM 37.4 °F - 37.4 °F 100% 30.09 in 10.0 mi Calm Calm - N/A   Clear
7:50 AM 37.4 °F 30.8 °F 37.4 °F 100% 30.10 in 10.0 mi SSW 9.2 mph - N/A   Clear
8:50 AM 42.8 °F 39.3 °F 41.0 °F 93% 30.08 in 10.0 mi SSW 5.8 mph - N/A   Clear
9:50 AM 51.8 °F - 42.8 °F 71% 30.06 in 10.0 mi WSW 9.2 mph - N/A   Clear
10:50 AM 57.2 °F - 44.6 °F 63% 30.06 in 10.0 mi WSW 13.8 mph - N/A   Clear
11:50 AM 59.0 °F - 44.6 °F 59% 30.04 in 10.0 mi WSW 15.0 mph - N/A   Clear
12:50 PM 64.4 °F - 44.6 °F 49% 30.02 in 10.0 mi WSW 20.7 mph 24.2 mph N/A   Clear
1:50 PM 64.4 °F - 44.6 °F 49% 30.00 in 10.0 mi SW 20.7 mph 26.5 mph N/A   Scattered Clouds
2:50 PM 66.2 °F - 46.4 °F 49% 29.97 in 10.0 mi SW 18.4 mph 24.2 mph N/A   Scattered Clouds
3:50 PM 68.0 °F - 46.4 °F 46% 29.96 in 10.0 mi SW 15.0 mph 26.5 mph N/A   Scattered Clouds
4:45 PM 68.0 °F - 46.4 °F 46% 29.96 in 10.0 mi SW 13.8 mph - N/A   Mostly Cloudy
5:55 PM 66.2 °F - 48.2 °F 52% 29.97 in 10.0 mi WSW 11.5 mph 17.3 mph N/A   Clear
6:50 PM 64.4 °F - 48.2 °F 56% 29.96 in 10.0 mi SW 8.1 mph - N/A   Clear
7:50 PM 60.8 °F - 50.0 °F 68% 29.97 in 10.0 mi SSW 4.6 mph - N/A   Clear
8:50 PM 59.0 °F - 50.0 °F 72% 29.96 in 10.0 mi South 5.8 mph - N/A   Clear
9:50 PM 57.2 °F - 50.0 °F 77% 29.94 in 10.0 mi SSW 8.1 mph - N/A   Clear
10:17 PM 57.6 °F - 49.5 °F 74% 29.95 in 10.0 mi SSW 5.8 mph - N/A   Clear
10:37 PM 57.4 °F - 49.3 °F 74% 29.94 in 10.0 mi SSW 6.9 mph - N/A   Clear
10:56 PM 58.5 °F - 49.1 °F 71% 29.94 in 10.0 mi SW 9.2 mph - N/A   Clear
11:17 PM 59.0 °F - 49.1 °F 70% 29.95 in 10.0 mi SW 8.1 mph - N/A   Clear
11:36 PM 59.0 °F - 49.1 °F 70% 29.94 in 10.0 mi SW 8.1 mph - N/A   Scattered Clouds
11:57 PM 58.6 °F - 49.3 °F 71% 29.94 in 10.0 mi SW 6.9 mph - N/A   Mostly Cloudy